Regional Weather Roundup
Issued by NWS

Home | Current Version | Previous Version | Text Only | Print | Product List | Glossary On
Versions: 1 2 3 4 5 6 7 8 9 10 11 12 13 14 15 16 17 18 19 20 21 22 23 24 25 26 27 28 29 30 31 32 33 34 35 36 37 38 39 40 41 42 43 44 45 46 47 48 49 50
000
ASUS42 KKEY 231710
RWRKEY

FLORIDA REGIONAL WEATHER ROUNDUP FOR THE FLORIDA KEYS
NATIONAL WEATHER SERVICE KEY WEST FLORIDA
100 PM EDT WED MAY 23 2018

...SOUTH FLORIDA AND THE KEYS...

CITY           SKY/WX    TMP DP  RH WIND       PRES   REMARKS
FORT MYERS     FAIR      88  68  51 SE8       30.06F HX  91
SW REGIONAL AP FAIR      88  69  53 SE8       30.07F HX  92
NAPLES         PTSUNNY   86  71  60 SE5       30.06F HX  91
MIAMI          PTSUNNY   84  72  67 SE12G21   30.08F
WEST KENDALL   PTSUNNY   86  72  62 E15       30.08S HX  92
HOMESTEAD      PTSUNNY   84  73  69 E15       30.08R
MARATHON       FAIR      85  74  69 E9        30.05F HX  92
KEY WEST INTL  FAIR      82  76  81 SE13      30.05F

...INTERNATIONAL WEATHER...

CITY           SKY/WX    TMP DP  RH WIND       PRES   REMARKS
NASSAU BAHAMAS CLOUDY    82  72  69 SE14      30.09F
CANCUN MEXICO  PTSUNNY   79  75  89 SE8       29.93S
COZUMEL MEXICO LGT RAIN  81  77  89 SE13      29.90F

ADJACENT COASTAL WATERS...

STATION/POSITION TIME  SKY/WX   TEMP    WIND        PRES    WAVE
                                AIR SEA DIR/SP/G            HT/PER
                 (UTC)          (F)     (DEG/KT/KT) (MB)    (FT/S)
PULASKI SHOAL LI 1700            79      90/ 10/ 10 1017.7F
SAND KEY         1650            80                 1017.5F
SOMBRERO KEY     1650            80      80/ 14/ 16 1017.0F
LONG KEY         1700            80 79  110/ 14/ 16 1017.7F
MOLASSES REEF    1700            80 79  130/ 12/ 13 1018.5S
FOWEY ROCKS      1700            79 78  100/ 14/ 15 1019.3F
Buoy 42097       1630               81                N/A     3/ 5

$$



USA.gov is the U.S. government's official web portal to all federal, state and local government web resources and services.